Alliance, NE

9:55 PM MDT on June 28, 2017 (GMT -0600)
Alliance Municipal

Weather History for KAIA - November, 2012

Change the Weather History Date:

Wednesday, November 7, 2012

  Actual Average Record
Temperature  
Mean Temperature 49 °F 37 °F  
Max Temperature 77 °F 53 °F 80 °F (1999)
Min Temperature 21 °F 21 °F 2 °F (2003)
Degree Days  
Heating Degree Days 16 28  
Month to date heating degree days 141 187  
Since 1 July heating degree days 911 1029  
Cooling Degree Days 0 0  
Month to date cooling degree days 0 0  
Year to date cooling degree days 959 564  
Moisture  
Dew Point 23 °F    
Average Humidity 54    
Maximum Humidity 96    
Minimum Humidity 11    
Precipitation  
Precipitation 0.00 in 0.01 in 0.84 in (1944)
Month to date precipitation T 0.13  
Year to date precipitation 6.53 15.02  
Sea Level Pressure  
Sea Level Pressure 29.93 in    
Wind  
Wind Speed 9 mph (SW)    
Max Wind Speed 22 mph    
Max Gust Speed 25 mph    
Visibility 10 miles    
Events      
T = Trace of Precipitation, MM = Missing Value Source: NWS Daily Summary

Daily Weather History Graph

Daily Weather History Graph

Search for Another Location

Airport or City:

Trip Planner

Search our weather history database for the weather conditions in past years. The results will help you decide how hot, cold, wet, or windy it might be!

Date:

Astronomy

Nov. 07, 2012 Rise Set
Actual Time 6:31 AM MST 4:37 PM MST
Civil Twilight 6:02 AM MST 5:06 PM MST
Nautical Twilight 5:29 AM MST 5:40 PM MST
Astronomical Twilight 4:56 AM MST 6:12 PM MST
Moon No Moon Rise 12:53 PM MST (11/7)
Length of Visible Light 11h 04m
Length of Day
10h 05m
Last Quarter, 42% of the Moon is Illuminated
Nov 7
Last Quarter
Nov 13
New
Nov 20
First Quarter
Nov 28
Full
Dec 6
Last Quarter

Hourly Weather History & Observations

Time (MST) Temp. Windchill Dew Point Humidity Pressure Visibility Wind Dir Wind Speed Gust Speed Precip Events Conditions
12:53 AM 28.0 °F 24.2 °F 21.9 °F 78% 30.12 in 10.0 mi SSE 3.5 mph - N/A   Clear
1:53 AM 28.9 °F 23.9 °F 25.0 °F 85% 30.10 in 10.0 mi SE 4.6 mph - N/A   Clear
2:53 AM 28.9 °F 25.2 °F 25.0 °F 85% 30.06 in 10.0 mi SSE 3.5 mph - N/A   Clear
3:53 AM 23.0 °F 15.8 °F 21.0 °F 92% 30.07 in 10.0 mi WSW 5.8 mph - N/A   Clear
4:53 AM 24.1 °F 19.7 °F 21.0 °F 88% 30.08 in 10.0 mi SW 3.5 mph - N/A   Clear
5:53 AM 24.1 °F 19.7 °F 21.0 °F 88% 30.09 in 10.0 mi SSW 3.5 mph - N/A   Clear
6:53 AM 25.0 °F 18.1 °F 21.0 °F 85% 30.08 in 10.0 mi South 5.8 mph - N/A   Clear
7:53 AM 33.1 °F 26.9 °F 30.0 °F 89% 30.08 in 10.0 mi SSE 6.9 mph - N/A   Clear
8:53 AM 45.0 °F 41.8 °F 34.0 °F 65% 30.02 in 10.0 mi South 5.8 mph - N/A   Clear
9:53 AM 57.0 °F - 34.0 °F 42% 29.99 in 10.0 mi SSE 6.9 mph - N/A   Clear
10:53 AM 73.0 °F - 27.0 °F 18% 29.91 in 10.0 mi SW 15.0 mph - N/A   Clear
11:01 AM 71.6 °F - 26.6 °F 19% 29.95 in 10.0 mi SW 16.1 mph - N/A   Partly Cloudy
11:53 AM 73.9 °F - 27.0 °F 18% 29.86 in 10.0 mi SW 19.6 mph - N/A   Clear
12:53 PM 75.0 °F - 25.0 °F 16% 29.83 in 10.0 mi SSW 16.1 mph 21.9 mph N/A   Clear
1:53 PM 77.0 °F - 19.9 °F 12% 29.80 in 10.0 mi WSW 19.6 mph 25.3 mph N/A   Clear
2:53 PM 75.9 °F - 17.1 °F 11% 29.79 in 10.0 mi West 18.4 mph - N/A   Clear
3:53 PM 71.1 °F - 18.0 °F 13% 29.80 in 10.0 mi West 12.7 mph - N/A   Clear
4:53 PM 55.0 °F - 21.0 °F 27% 29.83 in 10.0 mi West 13.8 mph - N/A   Clear
5:53 PM 50.0 °F - 19.0 °F 29% 29.87 in 10.0 mi SSW 3.5 mph - N/A   Clear
6:53 PM 45.0 °F 40.6 °F 21.0 °F 39% 29.89 in 10.0 mi SSW 8.1 mph - N/A   Clear
7:53 PM 44.1 °F 38.6 °F 21.0 °F 40% 29.87 in 10.0 mi SW 10.4 mph - N/A   Clear
8:53 PM 39.9 °F 33.9 °F 21.9 °F 49% 29.86 in 10.0 mi West 9.2 mph - N/A   Clear
9:53 PM 37.0 °F 32.4 °F 21.9 °F 54% 29.83 in 10.0 mi West 5.8 mph - N/A   Clear
10:53 PM 39.9 °F 35.1 °F 23.0 °F 51% 29.78 in 10.0 mi West 6.9 mph - N/A   Clear
11:53 PM 33.1 °F 24.9 °F 21.9 °F 64% 29.79 in 10.0 mi WSW 10.4 mph - N/A   Clear